Location: Bandys
(35.4750°N, 81.0830°W)
Time: 01:09:40
(UTC-04:00)

Daily predictions for brighter satellites

Satellite Brightness Start Highest point End
(mag) Time Altitude Azimuth Time Altitude Azimuth Time Altitude Azimuth
Cosmos 2227 Rocket 4.2 03:53:49 23° ENE 03:53:49 23° ENE 03:56:17 10° NE
Cosmos 2344 4.1 03:57:12 56° NNE 03:57:12 56° NNE 04:03:37 10° NNE
Cosmos 2297 Rocket 4.1 04:01:58 26° ENE 04:01:58 26° ENE 04:05:16 10° NE
Resurs 1-4 Rocket 4.4 04:07:54 10° NNE 04:09:10 18° NNE 04:09:10 18° NNE
Lacrosse 5 3.7 04:27:02 27° NE 04:27:02 27° NE 04:29:19 10° NE
USA 215 3.7 04:20:16 10° SE 04:25:09 54° ESE 04:25:09 54° ESE
Cosmos 1727 Rocket 4.4 04:28:18 58° E 04:28:18 58° E 04:34:14 10° NNE
FALCON 9 R/B 3.9 04:36:47 30° SSE 04:38:10 32° SE 04:50:35 10° ENE
Cosmos 2333 Rocket 4.1 04:48:09 18° SSE 04:48:09 18° SSE 04:49:31 10° SSE
NOSS 3-2 (C) 4.2 04:36:45 10° NNW 04:44:21 68° ENE 04:52:26 10° SE
CZ-4B R/B 3.9 04:52:24 10° NNE 04:56:14 50° ENE 04:56:14 50° ENE
Meteor 1-19 Rocket 4.1 04:59:00 86° ENE 04:59:00 86° ENE 05:04:34 10° N
Centaur D-1A AC-35 4.2 05:02:57 19° SSE 05:02:57 19° SSE 05:04:40 10° SE
Cosmos 1025 Rocket 4.4 05:05:15 32° N 05:05:15 32° N 05:07:35 10° N
Cosmos 1605 Rocket 4.2 04:57:19 10° NNW 05:02:13 55° NW 05:02:13 55° NW
NOSS 3-4 (A) 4.0 05:05:23 44° NW 05:05:23 44° NW 05:11:10 10° NNE
NOSS 3-4 (C) 4.0 05:05:28 45° NW 05:05:28 45° NW 05:11:17 10° NNE
CZ-4B R/B 3.3 05:00:12 10° NNE 05:05:38 73° ESE 05:07:14 47° S
Cosmos 1666 4.1 05:02:13 10° N 05:05:50 37° E 05:07:38 23° SE
Cosmos 2237 Rocket 2.0 05:00:29 10° NNW 05:06:08 86° WSW 05:11:45 10° SSE
Cosmos 1339 Rocket 4.4 05:05:17 62° SSW 05:06:23 80° W 05:12:49 10° N
Okean 2 4.2 05:06:40 49° E 05:06:43 49° E 05:10:44 10° NNE
ATLAS 5 CENTAUR R/B 2.4 05:04:00 23° NNW 05:08:07 84° ENE 05:14:40 10° SSE
ADEOS II 3.5 05:03:53 10° NNE 05:08:44 36° E 05:13:32 10° SSE
Meteor 2-4 Rocket 3.8 05:07:51 37° S 05:10:15 79° E 05:16:11 10° N
Cosmos 2112 Rocket 3.9 05:06:06 10° NNW 05:11:25 84° ENE 05:16:39 10° SSE
Cosmos 1680 Rocket 3.5 05:10:26 10° NNW 05:16:33 61° SSW 05:20:55 10° S
Meteor 1-23 Rocket 4.2 05:14:15 31° S 05:17:01 81° E 05:22:43 10° N
Cosmos 1980 4.0 05:21:32 46° SSW 05:21:32 46° SSW 05:25:43 10° S
Hubble Space Telescope 3.4 05:23:33 10° SSE 05:23:33 10° SSE 05:23:35 10° SSE
Okean O Rocket 2.6 05:19:31 10° N 05:22:15 34° NNW 05:22:15 34° NNW
Cosmos 1606 Rocket 3.4 05:20:01 10° N 05:24:24 89° W 05:25:38 47° S
SL-16 R/B 2.7 05:20:55 10° NNW 05:26:33 60° ENE 05:32:08 10° SSE
Meteor 2-9 Rocket 4.3 05:24:17 10° N 05:29:58 80° E 05:35:46 10° S
Delta 2 Rocket 3.1 05:30:16 77° ESE 05:30:16 77° ESE 05:33:39 10° E
CZ-2D R/B 4.2 05:27:05 10° NNW 05:27:41 12° NNW 05:27:41 12° NNW
Cosmos 1726 Rocket 3.4 05:30:39 10° N 05:35:02 81° W 05:39:22 10° S
Cosmos 2227 Rocket 3.2 05:35:40 28° NW 05:35:40 28° NW 05:40:07 10° N
Cosmos 2298 Rocket 3.9 05:33:43 36° SSW 05:35:53 76° WNW 05:41:13 10° NNE
GOES 2 Rocket 4.4 05:36:38 35° SW 05:38:33 45° S 05:45:36 10° ESE
Cosmos 2061 Rocket 4.0 05:35:50 10° N 05:42:11 88° W 05:48:34 10° S
Cosmos 2100 Rocket 3.9 05:36:11 10° N 05:42:25 79° W 05:48:43 10° S
Cosmos 1802 Rocket 4.0 05:37:40 10° N 05:43:51 84° E 05:49:59 10° S
Cosmos 1892 Rocket 3.7 05:43:29 47° WSW 05:44:10 51° W 05:48:33 10° N
RESURS DK-1 4.1 05:45:27 19° NNW 05:45:27 19° NNW 05:47:26 10° N
Cosmos 2297 Rocket 2.9 05:43:49 33° WNW 05:44:21 33° WNW 05:49:26 10° N
Cosmos 1346 Rocket 3.6 05:45:29 34° NW 05:45:29 34° NW 05:48:20 10° N
Thor Agena Rocket 3.5 05:41:19 10° SSE 05:46:36 81° WSW 05:51:56 10° NNW
Aureole 2 Rocket 3.0 05:46:22 10° N 05:49:40 51° ENE 05:52:40 10° SSE
Cosmos 2150 Rocket 3.9 05:47:14 26° SW 05:50:04 63° WNW 05:55:11 10° N
Cosmos 990 Rocket 4.2 05:45:19 10° S 05:50:32 72° ESE 05:55:47 10° NNE
CZ-2C R/B 4.4 05:51:40 33° WNW 05:51:40 33° WNW 05:55:07 10° NNW
PSLV R/B 3.5 05:48:03 10° N 05:52:20 65° WNW 05:55:25 18° SSW
Tiangong 1 2.9 05:53:54 19° NNW 05:54:29 20° N 05:56:49 10° NE
NOSS 3-2 (A) 4.5 05:49:31 10° NW 05:56:27 37° WSW 06:03:43 10° S
MOS 1 Rocket 3.8 05:53:19 10° NNE 05:58:12 68° E 06:03:20 10° S
Cosmos 2228 2.9 05:58:56 10° N 06:03:19 74° W 06:07:39 10° S
COBE Rocket 3.9 06:00:11 10° NNE 06:04:57 79° E 06:09:36 10° S
Cosmos 292 Rocket 4.1 06:02:15 10° NNW 06:06:50 42° WSW 06:11:22 10° S
Lacrosse 5 3.7 06:06:15 14° NW 06:07:55 16° NNW 06:10:58 10° N
USA 215 4.3 06:05:14 10° S 06:10:10 23° WSW 06:12:33 19° W
Cosmos 2098 Rocket 3.1 06:07:02 10° N 06:11:10 75° W 06:16:28 10° S
OTV 4 1.9 06:16:00 19° SSW 06:16:09 19° SSW 06:18:14 10° SSE
Cosmos 2016 Rocket 4.0 06:10:22 10° NNW 06:16:37 63° W 06:22:45 10° S
DELTA 2 R/B (1) 3.8 06:13:35 19° W 06:17:31 60° N 06:23:02 10° ENE
Cosmos 1898 Rocket 4.3 06:14:55 17° WSW 06:18:14 32° WNW 06:22:58 10° N
CZ-4B R/B 3.6 06:15:39 10° N 06:19:31 77° WNW 06:23:14 10° SSW
Cosmos 2263 Rocket 4.3 06:15:55 10° SSE 06:20:37 29° ESE 06:25:21 10° NE
Cosmos 2173 Rocket 4.4 06:16:23 10° NNW 06:21:57 39° W 06:27:34 10° SSW
Cosmos 1125 Rocket 4.3 06:19:41 10° S 06:24:43 55° ESE 06:29:48 10° NNE
SL-08 R/B 4.5 06:18:50 10° NNW 06:25:01 65° W 06:31:16 10° S
Meteor 1-31 Rocket 2.8 06:21:39 10° N 06:25:31 59° WNW 06:29:22 10° SSW
ADEOS Rocket 3.8 06:19:37 10° N 06:25:51 35° WNW 06:31:32 10° SW
Genesis I 3.2 06:22:05 10° SW 06:26:02 63° WNW 06:30:01 10° NNE
Cosmos 2058 Rocket 4.0 06:24:53 10° NW 06:28:26 25° W 06:31:59 10° SW
Okean-O 3.4 06:24:57 10° N 06:28:53 32° WNW 06:32:48 10° SW
USA 129 1.6 06:27:43 10° S 06:29:38 44° W 06:31:25 10° NNW
NOSS 2-2 (D) 3.9 06:26:12 12° SW 06:29:47 45° NW 06:34:10 10° NNE
CENTAUR R/B 3.2 06:22:02 10° NNW 06:30:03 88° WSW 06:38:26 10° SSE
Cosmos 1937 Rocket 4.2 06:25:54 10° SW 06:30:36 34° WNW 06:35:23 10° N
Cosmos 2123 Rocket 4.0 06:25:21 10° SSW 06:31:24 57° W 06:37:29 10° N
Centaur D-1AR AC-36 3.7 06:30:43 10° SSW 06:31:51 11° SSW 06:32:56 10° S
OAO 2 Rocket 3.6 06:30:23 13° WSW 06:35:12 72° SSE 06:40:31 10° E
Cosmos 1515 4.2 06:33:47 10° SSW 06:37:21 37° W 06:40:57 10° N
COSMO-SKYMED 1 3.0 06:33:14 10° SSE 06:37:31 67° ENE 06:41:51 10° N
Cosmos 1825 Rocket 3.9 06:37:35 10° S 06:41:58 70° E 06:46:20 10° NNE
NOAA 6 4.1 06:37:40 10° N 06:42:48 62° WNW 06:47:54 10° SSW
OE (NEXTSAT) 4.4 06:40:36 10° WNW 06:44:13 77° SW 06:47:50 10° SE
NOSS 2-2 (C) 4.4 06:41:33 10° WSW 06:45:15 32° NW 06:49:24 10° NNE
Intercosmos 25 Rocket 3.8 06:41:30 10° N 06:45:18 87° W 06:51:14 10° S
ADEOS II 3.2 06:44:04 10° NNW 06:48:12 24° WNW 06:52:20 10° WSW
EXPRESS MD2 4.2 06:44:34 10° NW 06:48:25 82° NE 06:56:37 10° SE
Cosmos 1340 2.7 06:47:04 10° SSW 06:50:47 56° W 06:54:31 10° N
ATLAS 5 CENTAUR R/B 4.0 06:48:56 10° WNW 06:52:16 15° WSW 06:55:41 10° SW
Cosmos 1842 4.3 06:51:55 10° S 06:55:41 51° E 06:59:27 10° NNE
